FW0735 Weather Reports


time (UTC)temp
F
wind
direction
speed
knots
gust
knots
rain 1hr
in
rain 24hr
in
rain mn
in
humidity
%
barometer
mb
20260504110511 63 227 16.5 22.6 0.00 0.15 0.14 64 1008.9
20260504100512 58 291 14.8 21.7 0.02 0.18 0.13 69 1009.0
20260504081518 62 293 16.5 25.2 0.00 0.21 0.11 62 1007.6
20260504081010 62 285 21.7 31.3 0.00 0.21 0.11 60 1007.7
20260504080508 62 262 20.9 31.3 0.00 0.21 0.11 60 1007.5
20260504050506 58 276 14.8 25.2 0.00 0.23 0.09 77 1007.3
20260504050012 58 238 16.5 25.2 0.00 0.23 0.09 77 1007.2
20260504045506 57 258 17.4 24.3 0.00 0.23 0.09 78 1007.2
20260504045007 56 250 19.1 27.8 0.00 0.23 0.09 78 1007.2
20260504044516 56 255 20.0 27.8 0.00 0.23 0.09 80 1007.0
20260504044011 55 255 16.5 22.6 0.00 0.24 0.09 80 1007.1
20260504043513 54 250 17.4 24.3 0.00 0.24 0.09 80 1007.1
20260504043022 54 236 17.4 26.9 0.01 0.25 0.09 79 1007.3
20260504042507 54 255 20.9 33.9 0.01 0.25 0.09 80 1007.4
20260504042010 54 246 23.5 33.9 0.01 0.25 0.09 81 1007.5
20260504041503 55 231 20.9 27.8 0.01 0.25 0.09 78 1007.9
20260504041004 56 248 19.1 26.9 0.02 0.25 0.09 75 1007.5
20260504040503 56 240 20.0 25.2 0.03 0.25 0.09 74 1007.3
20260504040010 56 243 16.5 26.1 0.05 0.25 0.09 74 1007.0
20260504035507 56 229 19.1 26.1 0.05 0.25 0.09 74 1007.2
20260504035007 55 257 16.5 26.1 0.05 0.26 0.09 77 1007.4
20260504034518 55 252 15.6 36.5 0.05 0.26 0.09 79 1007.6
20260504034007 55 252 14.8 36.5 0.05 0.26 0.09 78 1007.8
20260504033511 56 290 20.0 26.1 0.04 0.25 0.08 76 1008.0
20260504033022 56 260 20.9 26.1 0.03 0.25 0.07 75 1007.6
20260504032507 55 275 14.8 24.3 0.03 0.25 0.07 78 1007.3
20260504032012 55 272 18.2 25.2 0.03 0.25 0.07 78 1007.6
20260504031524 55 284 17.4 28.7 0.03 0.25 0.07 80 1007.6
20260504031007 55 271 21.7 28.7 0.03 0.24 0.07 79 1007.7
20260504030510 56 271 20.9 28.7 0.02 0.23 0.06 78 1007.5
20260504030014 57 293 20.0 25.2 0.00 0.21 0.03 74 1007.7
20260504025503 58 279 15.6 25.2 0.00 0.21 0.03 74 1007.5
20260504025003 57 273 13.9 21.7 0.00 0.21 0.03 76 1007.5
20260504024512 57 255 14.8 25.2 0.00 0.21 0.03 75 1007.5
20260504024007 57 245 19.1 25.2 0.00 0.21 0.03 74 1007.7
20260504023506 57 257 16.5 25.2 0.00 0.21 0.03 73 1007.8
20260504023018 57 250 12.2 17.4 0.00 0.21 0.03 73 1007.6
20260504022511 56 245 9.6 13.0 0.00 0.21 0.03 73 1007.5
20260504022010 56 279 9.6 13.0 0.00 0.21 0.03 74 1007.5
20260504021526 56 272 9.6 14.8 0.00 0.21 0.03 74 1007.4
20260504021006 56 287 9.6 19.1 0.00 0.21 0.03 74 1007.6
20260504020508 56 281 11.3 20.0 0.00 0.21 0.03 73 1007.7
20260504020026 56 272 14.8 21.7 0.00 0.21 0.03 73 1007.6
20260504015509 56 272 16.5 40.0 0.00 0.21 0.03 73 1007.7
20260504015013 55 264 21.7 40.0 0.00 0.21 0.03 73 1007.9
20260504014508 56 240 21.7 27.8 0.03 0.21 0.03 72 1008.0
20260504014005 56 250 14.8 20.0 0.03 0.21 0.03 72 1007.7
20260504013506 55 244 13.9 20.0 0.03 0.21 0.03 73 1007.8
20260504013016 55 254 14.8 26.1 0.03 0.21 0.03 75 1008.0
20260504012507 55 258 19.1 26.1 0.03 0.21 0.03 75 1008.1
20260504012008 55 255 13.9 20.0 0.03 0.21 0.03 75 1008.1
20260504011519 55 255 14.8 20.0 0.03 0.21 0.03 75 1008.2
20260504011012 55 243 15.6 20.0 0.03 0.21 0.03 74 1008.2
20260504010510 54 249 16.5 20.0 0.03 0.21 0.03 75 1008.2
20260504010024 54 224 14.8 28.7 0.03 0.21 0.03 76 1008.1
20260504005507 53 230 14.8 44.3 0.03 0.21 0.03 77 1008.0
20260504005014 53 253 22.6 44.3 0.03 0.21 0.03 78 1008.2
20260504004528 57 256 33.9 42.6 0.00 0.18 0.00 72 1008.3
20260504004010 59 264 19.1 27.8 0.00 0.18 0.00 65 1008.0
20260504003513 59 248 17.4 26.1 0.00 0.18 0.00 65 1007.9
20260504003019 59 248 19.1 28.7 0.00 0.18 0.00 64 1008.0
20260504002505 58 240 18.2 28.7 0.00 0.18 0.00 66 1008.1
20260504002007 58 272 17.4 22.6 0.00 0.18 0.00 68 1008.2
20260504001516 57 286 13.0 17.4 0.00 0.18 0.00 68 1008.2
20260504001006 57 244 11.3 17.4 0.00 0.18 0.00 69 1008.2
20260504000507 57 250 12.2 16.5 0.00 0.18 0.00 69 1008.4
20260504000022 57 257 11.3 18.2 0.00 0.18 0.00 69 1008.4
20260503235507 57 295 12.2 18.2 0.00 0.18 0.00 67 1008.5
20260503235009 56 249 12.2 24.3 0.00 0.18 0.00 67 1008.4
20260503234523 56 254 15.6 26.1 0.00 0.18 0.00 65 1008.4
20260503234009 56 247 20.9 26.1 0.00 0.18 0.00 68 1008.6
20260503233512 56 289 6.1 10.4 0.00 0.18 0.00 68 1008.5
20260503233035 57 281 7.8 10.4 0.00 0.18 0.00 67 1008.6
20260503232510 57 278 5.2 11.3 0.00 0.18 0.00 68 1008.6
20260503232010 57 271 7.0 11.3 0.00 0.18 0.00 67 1008.8
20260503231522 57 257 9.6 12.2 0.00 0.18 0.00 66 1008.9
20260503231007 57 235 9.6 12.2 0.00 0.18 0.00 66 1009.0
20260503230509 57 268 7.0 11.3 0.00 0.18 0.00 65 1009.0
20260503230020 56 256 6.1 9.6 0.00 0.18 0.00 66 1009.1
20260503225507 56 248 7.0 12.2 0.00 0.18 0.00 67 1009.1
20260503225014 56 234 8.7 13.9 0.00 0.18 0.00 67 1009.3
20260503224528 56 250 9.6 13.9 0.00 0.18 0.00 67 1009.2
20260503224012 56 257 7.8 15.6 0.00 0.18 0.00 68 1009.2
20260503223510 56 243 8.7 15.6 0.00 0.18 0.00 67 1009.2
20260503223027 56 243 9.6 12.2 0.00 0.18 0.00 68 1009.2
20260503222508 56 248 8.7 11.3 0.00 0.18 0.00 70 1009.3
20260503222013 56 240 8.7 11.3 0.00 0.18 0.00 69 1009.4
20260503221533 56 247 8.7 11.3 0.00 0.18 0.00 69 1009.4
20260503221010 56 240 8.7 11.3 0.00 0.18 0.00 70 1009.5
20260503220513 56 251 8.7 12.2 0.00 0.18 0.00 69 1009.5
20260503220020 56 254 9.6 13.9 0.00 0.18 0.00 69 1009.5
20260503215506 56 262 10.4 13.9 0.00 0.18 0.00 68 1009.5
20260503215006 56 245 10.4 13.0 0.00 0.18 0.00 68 1009.5
20260503214523 56 249 10.4 13.0 0.00 0.18 0.00 69 1009.6
20260503214009 55 255 9.6 16.5 0.00 0.18 0.00 69 1009.6
20260503213511 56 237 11.3 20.0 0.00 0.18 0.00 69 1009.6
20260503213026 56 237 12.2 22.6 0.00 0.18 0.00 68 1009.7
20260503212515 56 269 14.8 25.2 0.00 0.18 0.00 68 1009.7
20260503212014 56 240 18.2 29.5 0.00 0.18 0.00 68 1009.8
20260503211528 57 266 24.3 33.9 0.00 0.18 0.00 65 1009.9
20260503211010 57 267 21.7 33.9 0.00 0.18 0.00 63 1009.9
20260503210508 58 269 12.2 15.6 0.00 0.18 0.00 63 1009.8
20260503210032 58 233 9.6 15.6 0.00 0.18 0.00 63 1009.5
20260503205508 58 245 10.4 14.8 0.00 0.18 0.18 64 1009.6
20260503205013 58 248 9.6 13.0 0.00 0.18 0.18 65 1009.6
20260503204519 57 248 10.4 13.0 0.00 0.18 0.18 65 1009.6
20260503204009 57 258 9.6 13.0 0.00 0.18 0.18 65 1009.6
20260503203515 57 257 8.7 11.3 0.00 0.18 0.18 66 1009.6
20260503203026 57 240 8.7 11.3 0.00 0.18 0.18 66 1009.7
20260503202509 56 248 7.8 9.6 0.00 0.18 0.18 66 1009.7
20260503202011 56 243 7.0 8.7 0.00 0.18 0.18 67 1009.8
20260503201524 57 248 7.8 9.6 0.00 0.18 0.18 66 1009.8
20260503201014 57 257 7.8 9.6 0.00 0.18 0.18 66 1009.8
20260503200514 57 252 7.0 8.7 0.00 0.18 0.18 66 1009.8
20260503200026 57 255 7.0 8.7 0.00 0.18 0.18 66 1009.7
20260503195510 57 255 7.0 9.6 0.00 0.18 0.18 66 1009.7
20260503195013 57 246 7.8 9.6 0.00 0.18 0.18 66 1009.8
20260503194530 57 250 7.8 10.4 0.00 0.18 0.18 66 1009.9
20260503194009 57 255 8.7 12.2 0.00 0.18 0.18 65 1010.0
20260503193514 57 260 8.7 12.2 0.00 0.18 0.18 66 1010.0
20260503193017 57 274 7.8 12.2 0.00 0.18 0.18 66 1010.0
20260503192509 57 259 9.6 12.2 0.00 0.18 0.18 66 1010.0
20260503192006 57 248 10.4 12.2 0.00 0.18 0.18 66 1009.9
20260503191524 57 252 10.4 13.0 0.00 0.18 0.18 66 1009.9
20260503191008 57 257 10.4 13.0 0.00 0.18 0.18 66 1009.8
20260503190511 57 250 9.6 12.2 0.00 0.18 0.18 66 1009.8
20260503190026 57 248 9.6 12.2 0.00 0.18 0.18 66 1009.6
20260503185510 57 253 9.6 13.0 0.00 0.18 0.18 66 1009.5
20260503185009 57 245 10.4 13.9 0.00 0.18 0.18 65 1009.6
20260503184526 58 243 11.3 13.9 0.00 0.18 0.18 65 1009.5
20260503184011 58 264 10.4 13.9 0.00 0.18 0.18 65 1009.5
20260503183515 58 258 11.3 16.5 0.00 0.18 0.18 64 1009.5
20260503183027 58 258 12.2 16.5 0.00 0.18 0.18 64 1009.4
20260503182510 58 255 13.0 17.4 0.00 0.18 0.18 64 1009.3
20260503182014 58 242 13.0 17.4 0.00 0.18 0.18 64 1009.4
20260503181519 58 250 12.2 15.6 0.00 0.18 0.18 64 1009.3
20260503181007 58 245 11.3 18.2 0.00 0.18 0.18 64 1009.3
20260503180509 59 267 13.0 18.2 0.00 0.18 0.18 63 1009.2
20260503180024 58 253 12.2 15.6 0.00 0.18 0.18 64 1009.2
20260503175512 59 243 12.2 15.6 0.00 0.18 0.18 63 1009.2
20260503175011 59 247 11.3 15.6 0.00 0.18 0.18 63 1009.1
20260503174531 59 245 11.3 14.8 0.00 0.18 0.18 63 1009.1
20260503174009 59 248 11.3 16.5 0.00 0.18 0.18 62 1009.1
20260503173510 59 240 13.0 17.4 0.00 0.18 0.18 61 1009.0
20260503173034 60 251 11.3 18.2 0.00 0.18 0.18 61 1009.0
20260503172514 60 250 14.8 18.2 0.00 0.18 0.18 61 1008.9
20260503172013 60 270 12.2 18.2 0.00 0.18 0.18 61 1008.8
20260503171534 60 266 13.0 18.2 0.00 0.18 0.18 62 1008.7
20260503171008 60 240 13.9 18.2 0.00 0.18 0.18 63 1008.6
20260503170509 60 255 10.4 18.2 0.00 0.18 0.18 65 1008.6
20260503151009 64 264 17.4 21.7 0.00 0.18 0.18 57 1007.5
20260503150511 64 244 13.9 20.0 0.00 0.18 0.18 61 1007.4
20260503131010 61 309 4.3 5.2 0.00 0.18 0.18 80 1007.4
20260503130511 61 292 4.3 6.1 0.00 0.18 0.18 81 1007.5